Roseburg, OR

10:33 PM PST on November 19, 2017 (GMT -0800)
Roseburg Regional

Weather History for KRBG - June, 2013

Change the Weather History Date:

Sunday, June 2, 2013

  Actual Average Record
Temperature  
Mean Temperature 64 °F 61 °F  
Max Temperature 75 °F 73 °F 92 °F (1937)
Min Temperature 53 °F 50 °F 37 °F (1954)
Degree Days  
Heating Degree Days 1 5  
Month to date heating degree days 1 10  
Since 1 June heating degree days 1 10  
Since 1 July heating degree days 3597 3993  
Cooling Degree Days 0 1  
Month to date cooling degree days 1 2  
Year to date cooling degree days 35 22  
Since 1 June cooling degree days 1 2  
Growing Degree Days 13 (Base 50)    
Moisture  
Dew Point 50 °F    
Average Humidity 66    
Maximum Humidity 93    
Minimum Humidity 38    
Precipitation  
Precipitation 0.00 in 0.08 in 0.65 in (1958)
Month to date precipitation 0.00 0.17  
Year to date precipitation 7.59 17.80  
Sea Level Pressure  
Sea Level Pressure 30.04 in    
Wind  
Wind Speed 8 mph (North)    
Max Wind Speed 21 mph    
Max Gust Speed 25 mph    
Visibility 9 miles    
Events      
T = Trace of Precipitation, MM = Missing Value Source: NWS Daily Summary

Daily Weather History Graph

Daily Weather History Graph

Search for Another Location

Airport or City:

Trip Planner

Search our weather history database for the weather conditions in past years. The results will help you decide how hot, cold, wet, or windy it might be!

Date:

Astronomy

Jun. 02, 2013 Rise Set
Actual Time 5:35 AM PDT 8:47 PM PDT
Civil Twilight 5:00 AM PDT 9:22 PM PDT
Nautical Twilight 4:16 AM PDT 10:07 PM PDT
Astronomical Twilight 3:21 AM PDT 11:02 PM PDT
Moon 2:14 AM PDT (6/2) 3:16 PM PDT (6/2)
Length of Visible Light 16h 21m
Length of Day
15h 12m
Waning Crescent, 30% of the Moon is Illuminated
Jun 2
Waning Crescent
Jun 8
New
Jun 16
First Quarter
Jun 23
Full
Jun 29
Last Quarter

Hourly Weather History & Observations

Time (PDT) Temp. Dew Point Humidity Pressure Visibility Wind Dir Wind Speed Gust Speed Precip Events Conditions
12:53 AM 59.0 °F 48.9 °F 69% 30.05 in 10.0 mi North 6.9 mph - N/A   Mostly Cloudy
1:53 AM 57.9 °F 50.0 °F 75% 30.04 in 10.0 mi North 6.9 mph - N/A   Mostly Cloudy
2:53 AM 55.9 °F 50.0 °F 80% 30.04 in 10.0 mi North 4.6 mph - N/A   Clear
3:22 AM 55.4 °F 50.0 °F 82% 30.05 in 10.0 mi North 4.6 mph - N/A   Mostly Cloudy
3:53 AM 55.9 °F 50.0 °F 80% 30.04 in 10.0 mi North 5.8 mph - N/A   Overcast
4:53 AM 55.9 °F 50.0 °F 80% 30.04 in 10.0 mi North 6.9 mph - N/A   Overcast
5:22 AM 55.4 °F 51.8 °F 88% 30.05 in 6.0 mi North 8.1 mph - N/A   Overcast
5:41 AM 53.6 °F 51.8 °F 94% 30.06 in 3.0 mi North 6.9 mph - N/A   Overcast
5:50 AM 53.6 °F 51.8 °F 94% 30.06 in 2.0 mi North 6.9 mph - N/A   Overcast
5:53 AM 54.0 °F 52.0 °F 93% 30.05 in 2.0 mi North 5.8 mph - N/A   Overcast
6:05 AM 53.6 °F 51.8 °F 94% 30.06 in 4.0 mi NNE 6.9 mph - N/A   Overcast
6:36 AM 53.6 °F 51.8 °F 94% 30.06 in 8.0 mi North 8.1 mph - N/A   Overcast
6:53 AM 54.0 °F 51.1 °F 90% 30.07 in 10.0 mi NNW 4.6 mph - N/A   Overcast
7:53 AM 55.0 °F 50.0 °F 83% 30.07 in 10.0 mi NNW 5.8 mph - N/A   Overcast
8:49 AM 55.4 °F 48.2 °F 77% 30.07 in 10.0 mi North 4.6 mph - N/A   Overcast
8:53 AM 55.9 °F 48.9 °F 77% 30.07 in 10.0 mi North 5.8 mph - N/A   Overcast
9:53 AM 57.9 °F 50.0 °F 75% 30.06 in 10.0 mi North 6.9 mph - N/A   Overcast
10:53 AM 60.1 °F 50.0 °F 69% 30.06 in 10.0 mi North 6.9 mph - N/A   Overcast
11:01 AM 60.8 °F 50.0 °F 68% 30.07 in 10.0 mi North 9.2 mph - N/A   Overcast
11:53 AM 63.0 °F 51.1 °F 65% 30.05 in 10.0 mi NNW 6.9 mph - N/A   Mostly Cloudy
12:53 PM 66.0 °F 51.1 °F 59% 30.04 in 10.0 mi NNW 10.4 mph - N/A   Overcast
1:53 PM 66.9 °F 48.9 °F 52% 30.03 in 10.0 mi North 13.8 mph 19.6 mph N/A   Mostly Cloudy
2:53 PM 70.0 °F 48.9 °F 47% 30.03 in 10.0 mi NNE 11.5 mph 23.0 mph N/A   Partly Cloudy
3:53 PM 72.0 °F 48.0 °F 43% 30.01 in 10.0 mi North 9.2 mph - N/A   Clear
4:53 PM 73.9 °F 46.9 °F 38% 30.00 in 10.0 mi North 20.7 mph 25.3 mph N/A   Clear
5:53 PM 73.9 °F 46.0 °F 37% 29.99 in 10.0 mi North 17.3 mph - N/A   Clear
6:53 PM 73.0 °F 46.0 °F 38% 29.99 in 10.0 mi NNE 16.1 mph 21.9 mph N/A   Clear
7:53 PM 71.1 °F 46.0 °F 41% 29.99 in 10.0 mi North 10.4 mph 18.4 mph N/A   Clear
8:53 PM 69.1 °F 46.9 °F 45% 30.00 in 10.0 mi NNW 5.8 mph - N/A   Clear
9:53 PM 64.9 °F 52.0 °F 63% 30.02 in 10.0 mi Calm Calm - N/A   Clear
10:53 PM 62.1 °F 51.1 °F 67% 30.04 in 10.0 mi Calm Calm - N/A   Clear
11:53 PM 60.1 °F 51.1 °F 72% 30.04 in 10.0 mi Calm Calm - N/A   Clear